^^
Saratoga-Weather Station Historical Data
Daily Summary for February 1, 2021 Units:  Metric    English   Both
Daily Weekly Monthly Yearly Custom
  High: Low: Average:
Temperature: 13.7 °C 12.7 °C 13.3 °C
Dew Point: 12.7 °C 11.7 °C 12.2 °C
Humidity: 94% 92% 93%
Wind Speed: 14.3km/h 1.4km/h 5.4km/h
Wind Gust: 16.1km/h - -
Wind- - West
Pressure: 1015.6 hPa 1014.9 hPa -
Precipitation: 0.0 mm    
Historical Graphs
 
 
Tabular Data for February 1, 2021
Time Temperature Dew Point Pressure Wind Wind Speed Wind Gust Humidity Rainfall Rate (Hourly) solar
00:00 13.5 °C 12.6 °C 1015.2 hPa WNW 4.7 km/h 12.9 km/h 94% 0.0 mm 0 W/m2
00:05 13.5 °C 12.6 °C 1015.2 hPa WSW 6.4 km/h 11.3 km/h 94% 0.0 mm 0 W/m2
00:10 13.6 °C 12.7 °C 1015.2 hPa WSW 7.9 km/h 11.3 km/h 94% 0.0 mm 0 W/m2
00:15 13.6 °C 12.5 °C 1015.2 hPa WSW 7.9 km/h 11.3 km/h 93% 0.0 mm 0 W/m2
00:20 13.6 °C 12.5 °C 1015.2 hPa West 4.7 km/h 12.9 km/h 93% 0.0 mm 0 W/m2
00:25 13.6 °C 12.5 °C 1015.2 hPa West 4.7 km/h 12.9 km/h 93% 0.0 mm 0 W/m2
00:30 13.6 °C 12.5 °C 1015.2 hPa WSW 6.4 km/h 12.9 km/h 93% 0.0 mm 0 W/m2
00:35 13.6 °C 12.5 °C 1015.2 hPa West 11.1 km/h 14.5 km/h 93% 0.0 mm 0 W/m2
00:40 13.6 °C 12.5 °C 1015.2 hPa WSW 6.4 km/h 14.5 km/h 93% 0.0 mm 0 W/m2
00:45 13.7 °C 12.6 °C 1015.2 hPa West 4.7 km/h 9.7 km/h 93% 0.0 mm 0 W/m2
00:50 13.6 °C 12.5 °C 1015.2 hPa West 3.2 km/h 14.5 km/h 93% 0.0 mm 0 W/m2
00:55 13.7 °C 12.6 °C 1015.2 hPa WSW 4.7 km/h 9.7 km/h 93% 0.0 mm 0 W/m2
01:00 13.7 °C 12.6 °C 1015.2 hPa WSW 6.4 km/h 6.4 km/h 93% 0.0 mm 0 W/m2
01:05 13.6 °C 12.5 °C 1015.2 hPa WNW 11.1 km/h 14.5 km/h 93% 0.0 mm 0 W/m2
01:10 13.6 °C 12.5 °C 1015.2 hPa WSW 4.7 km/h 12.9 km/h 93% 0.0 mm 0 W/m2
01:15 13.6 °C 12.5 °C 1015.2 hPa WSW 6.4 km/h 8 km/h 93% 0.0 mm 0 W/m2
01:20 13.6 °C 12.5 °C 1015.2 hPa WSW 6.4 km/h 9.7 km/h 93% 0.0 mm 0 W/m2
01:25 13.6 °C 12.5 °C 1015.2 hPa West 4.7 km/h 12.9 km/h 93% 0.0 mm 0 W/m2
01:30 13.6 °C 12.5 °C 1015.2 hPa West 4.7 km/h 11.3 km/h 93% 0.0 mm 0 W/m2
01:35 13.6 °C 12.5 °C 1015.2 hPa West 3.2 km/h 11.3 km/h 93% 0.0 mm 0 W/m2
01:40 13.6 °C 12.5 °C 1015.2 hPa WNW 6.4 km/h 6.4 km/h 93% 0.0 mm 0 W/m2
01:45 13.6 °C 12.5 °C 1015.2 hPa West 6.4 km/h 9.7 km/h 93% 0.0 mm 0 W/m2
01:50 13.6 °C 12.5 °C 1015.2 hPa WNW 7.9 km/h 14.5 km/h 93% 0.0 mm 0 W/m2
01:55 13.6 °C 12.5 °C 1015.2 hPa WSW 7.9 km/h 11.3 km/h 93% 0.0 mm 0 W/m2
02:00 13.6 °C 12.5 °C 1015.2 hPa West 6.4 km/h 14.5 km/h 93% 0.0 mm 0 W/m2
02:05 13.6 °C 12.5 °C 1014.9 hPa WSW 11.1 km/h 12.9 km/h 93% 0.0 mm 0 W/m2
02:10 13.6 °C 12.5 °C 1015.2 hPa West 3.2 km/h 12.9 km/h 93% 0.0 mm 0 W/m2
02:15 13.6 °C 12.5 °C 1014.9 hPa WSW 3.2 km/h 9.7 km/h 93% 0.0 mm 0 W/m2
02:20 13.6 °C 12.5 °C 1014.9 hPa WSW 7.9 km/h 12.9 km/h 93% 0.0 mm 0 W/m2
02:25 13.6 °C 12.5 °C 1014.9 hPa WNW 6.4 km/h 11.3 km/h 93% 0.0 mm 0 W/m2
02:30 13.6 °C 12.5 °C 1015.2 hPa West 9.7 km/h 14.5 km/h 93% 0.0 mm 0 W/m2
02:35 13.6 °C 12.5 °C 1014.9 hPa WNW 4.7 km/h 12.9 km/h 93% 0.0 mm 0 W/m2
02:40 13.6 °C 12.5 °C 1015.2 hPa WNW 4.7 km/h 11.3 km/h 93% 0.0 mm 0 W/m2
02:45 13.5 °C 12.4 °C 1015.2 hPa WNW 3.2 km/h 11.3 km/h 93% 0.0 mm 0 W/m2
02:50 13.4 °C 12.3 °C 1015.2 hPa West 6.4 km/h 9.7 km/h 93% 0.0 mm 0 W/m2
02:55 13.4 °C 12.3 °C 1015.2 hPa NW 3.2 km/h 9.7 km/h 93% 0.0 mm 0 W/m2
03:00 13.4 °C 12.3 °C 1015.2 hPa West 9.7 km/h 11.3 km/h 93% 0.0 mm 0 W/m2
03:05 13.4 °C 12.3 °C 1015.2 hPa WNW 3.2 km/h 9.7 km/h 93% 0.0 mm 0 W/m2
03:10 13.4 °C 12.3 °C 1015.2 hPa West 3.2 km/h 6.4 km/h 93% 0.0 mm 0 W/m2
03:15 13.3 °C 12.2 °C 1015.2 hPa West 6.4 km/h 6.4 km/h 93% 0.0 mm 0 W/m2
03:20 13.3 °C 12.2 °C 1015.2 hPa WSW 3.2 km/h 11.3 km/h 93% 0.0 mm 0 W/m2
03:25 13.3 °C 12.2 °C 1015.2 hPa WSW 4.7 km/h 9.7 km/h 93% 0.0 mm 0 W/m2
03:30 13.3 °C 12.2 °C 1015.2 hPa West 3.2 km/h 11.3 km/h 93% 0.0 mm 0 W/m2
03:35 13.3 °C 12.2 °C 1015.2 hPa WSW 1.4 km/h 4.8 km/h 93% 0.0 mm 0 W/m2
03:40 13.3 °C 12.2 °C 1015.2 hPa West 1.4 km/h 8 km/h 93% 0.0 mm 0 W/m2
03:45 13.3 °C 12.2 °C 1015.2 hPa WSW 4.7 km/h 9.7 km/h 93% 0.0 mm 0 W/m2
03:50 13.3 °C 12.2 °C 1015.2 hPa WSW 6.4 km/h 9.7 km/h 93% 0.0 mm 0 W/m2
03:55 13.3 °C 12.2 °C 1014.9 hPa WSW 4.7 km/h 8 km/h 93% 0.0 mm 0 W/m2
04:01 13.3 °C 12.2 °C 1014.9 hPa West 1.4 km/h 11.3 km/h 93% 0.0 mm 0 W/m2
04:06 13.3 °C 12.2 °C 1014.9 hPa West 4.7 km/h 11.3 km/h 93% 0.0 mm 0 W/m2
04:11 13.3 °C 12.2 °C 1014.9 hPa WSW 4.7 km/h 8 km/h 93% 0.0 mm 0 W/m2
04:16 13.3 °C 12.2 °C 1014.9 hPa WNW 4.7 km/h 11.3 km/h 93% 0.0 mm 0 W/m2
04:21 13.3 °C 12.2 °C 1015.2 hPa WNW 4.7 km/h 8 km/h 93% 0.0 mm 0 W/m2
04:26 13.3 °C 12.2 °C 1015.2 hPa West 3.2 km/h 6.4 km/h 93% 0.0 mm 0 W/m2
04:31 13.3 °C 12.2 °C 1015.2 hPa WNW 7.9 km/h 9.7 km/h 93% 0.0 mm 0 W/m2
04:36 13.3 °C 12.2 °C 1015.2 hPa West 1.4 km/h 4.8 km/h 93% 0.0 mm 0 W/m2
04:41 13.3 °C 12.2 °C 1015.2 hPa SW 6.4 km/h 11.3 km/h 93% 0.0 mm 0 W/m2
04:46 13.3 °C 12 °C 1015.2 hPa WNW 9.7 km/h 12.9 km/h 92% 0.0 mm 0 W/m2
04:51 13.3 °C 12 °C 1015.2 hPa WNW 4.7 km/h 12.9 km/h 92% 0.0 mm 0 W/m2
04:56 13.3 °C 12 °C 1015.2 hPa West 3.2 km/h 9.7 km/h 92% 0.0 mm 0 W/m2
05:01 13.3 °C 12 °C 1015.2 hPa WNW 12.9 km/h 12.9 km/h 92% 0.0 mm 0 W/m2
05:06 13.3 °C 12 °C 1015.2 hPa WNW 1.4 km/h 3.2 km/h 92% 0.0 mm 0 W/m2
05:11 13.3 °C 12 °C 1015.2 hPa West 3.2 km/h 3.2 km/h 92% 0.0 mm 0 W/m2
05:16 13.3 °C 12 °C 1015.2 hPa WSW 4.7 km/h 6.4 km/h 92% 0.0 mm 0 W/m2
05:21 13.3 °C 12 °C 1015.2 hPa West 3.2 km/h 9.7 km/h 92% 0.0 mm 0 W/m2
05:26 13.2 °C 11.9 °C 1015.2 hPa WNW 3.2 km/h 6.4 km/h 92% 0.0 mm 0 W/m2
05:31 13.2 °C 11.9 °C 1015.2 hPa West 9.7 km/h 9.7 km/h 92% 0.0 mm 0 W/m2
05:36 13.2 °C 11.9 °C 1015.2 hPa WNW 3.2 km/h 9.7 km/h 92% 0.0 mm 0 W/m2
05:41 13.2 °C 11.9 °C 1015.2 hPa West 4.7 km/h 11.3 km/h 92% 0.0 mm 0 W/m2
05:46 13.1 °C 11.8 °C 1015.2 hPa WNW 14.3 km/h 16.1 km/h 92% 0.0 mm 0 W/m2
05:51 13.1 °C 11.8 °C 1015.2 hPa WNW 3.2 km/h 11.3 km/h 92% 0.0 mm 0 W/m2
05:56 13.1 °C 11.8 °C 1015.2 hPa WNW 3.2 km/h 16.1 km/h 92% 0.0 mm 5 W/m2
06:01 13.1 °C 11.8 °C 1015.2 hPa WNW 6.4 km/h 6.4 km/h 92% 0.0 mm 7 W/m2
06:06 13.1 °C 11.8 °C 1015.2 hPa West 12.9 km/h 12.9 km/h 92% 0.0 mm 9 W/m2
06:11 13.1 °C 11.8 °C 1015.2 hPa WSW 3.2 km/h 14.5 km/h 92% 0.0 mm 11 W/m2
06:16 13.1 °C 11.8 °C 1015.2 hPa West 3.2 km/h 12.9 km/h 92% 0.0 mm 12 W/m2
06:21 13.1 °C 11.8 °C 1015.2 hPa West 1.4 km/h 14.5 km/h 92% 0.0 mm 14 W/m2
06:26 13.1 °C 11.8 °C 1015.2 hPa West 4.7 km/h 12.9 km/h 92% 0.0 mm 18 W/m2
06:31 13.1 °C 11.8 °C 1015.2 hPa WNW 6.4 km/h 11.3 km/h 92% 0.0 mm 16 W/m2
06:36 13.1 °C 11.8 °C 1015.2 hPa WNW 3.2 km/h 8 km/h 92% 0.0 mm 25 W/m2
06:41 13 °C 11.7 °C 1015.2 hPa West 4.7 km/h 11.3 km/h 92% 0.0 mm 14 W/m2
06:46 13 °C 11.9 °C 1015.2 hPa West 3.2 km/h 8 km/h 93% 0.0 mm 16 W/m2
06:51 13 °C 11.9 °C 1015.6 hPa West 3.2 km/h 9.7 km/h 93% 0.0 mm 25 W/m2
06:56 12.9 °C 11.8 °C 1015.6 hPa West 9.7 km/h 14.5 km/h 93% 0.0 mm 23 W/m2
07:01 12.9 °C 11.8 °C 1015.6 hPa West 4.7 km/h 8 km/h 93% 0.0 mm 19 W/m2
07:06 12.9 °C 11.8 °C 1015.6 hPa West 3.2 km/h 14.5 km/h 93% 0.0 mm 28 W/m2
07:11 12.8 °C 11.7 °C 1015.6 hPa West 4.7 km/h 6.4 km/h 93% 0.0 mm 26 W/m2
07:16 12.8 °C 11.7 °C 1015.6 hPa West 4.7 km/h 4.8 km/h 93% 0.0 mm 39 W/m2
07:21 12.8 °C 11.9 °C 1015.6 hPa WSW 11.1 km/h 12.9 km/h 94% 0.0 mm 40 W/m2
07:26 12.7 °C 11.8 °C 1015.6 hPa West 3.2 km/h 14.5 km/h 94% 0.0 mm 40 W/m2
07:31 12.7 °C 11.8 °C 1015.6 hPa WNW 4.7 km/h 11.3 km/h 94% 0.0 mm 54 W/m2
Juneau County Weather
Compliments of Weather Underground - 2 mb